Flag for Germany Weather past 2 weeks in Wolfenbüttel, Lower Saxony, Germany

Now
81 °F

Passing clouds.


Feels Like: 81 °F
Forecast: 55 / 80 °F
Wind: 9 mph from Northeast

Location: Braunschweig

Current Time: Jul 23, 2014 at 2:23:23 PM

Latest Report: Jul 23, 2014 at 1:20 PM


Visibility: N/A

Pressure: 30.09 "Hg

Humidity: 42%

Dew point: 55 °F

Location of WolfenbüttelLocation

Historic Weather in Wolfenbüttel — Graph

°F

Wolfenbüttel temperature yesterday

Maximum temperature yesterday: 84 °F (at 2:50 PM)
Minimum temperature yesterday: 63 °F (at 6:50 AM)
Average temperature yesterday: 75 °F

Past Weeks' High & Low Weather Summary

 TemperatureHumidityPressure
High93 °F (Jul 20, 1:50 PM)100% (Jul 8, 1:20 PM)30.21 "Hg (Jul 8, 1:20 PM)
Low55 °F (Jul 17, 5:50 AM)24% (Jul 19, 4:50 PM)29.56 "Hg (Jul 9, 9:50 AM)
Average74 °F64%29.95 "Hg
* Reported Jul 8 1:20 PM — Jul 23 1:20 PM, Wolfenbüttel, Weather by CustomWeather, © 2014

Note: Actual official high and low records may vary slightly from our data, if they occured in-between our weather recording intervals... More about our weather records

Advertising

Wolfenbüttel weather history for previous 24 hours

 ConditionsComfort  
Time TempWeatherWind HumidityBarometerVisibility
1:20 PM
Jul 23
81 °FPassing clouds.9 mph42%30.09 "HgN/A
12:50 PM81 °FPassing clouds.9 mph39%30.09 "HgN/A
12:20 PM79 °FPassing clouds.9 mph48%30.12 "HgN/A
11:20 AM77 °FSunny.7 mph54%30.12 "Hg10 mi
10:50 AM75 °FPassing clouds.7 mph54%30.12 "HgN/A
10:20 AM73 °FPassing clouds.8 mph57%30.12 "HgN/A
7:50 AM68 °FPassing clouds.5 mph73%30.12 "HgN/A
7:20 AM66 °FPassing clouds.5 mph78%30.12 "HgN/A
6:50 AM64 °FSunny.3 mph83%30.12 "Hg10 mi
6:50 PM
Jul 22
84 °FPassing clouds.8 mph37%30.04 "HgN/A
6:20 PM82 °FPassing clouds.9 mph40%30.04 "HgN/A
5:50 PM82 °FPassing clouds.9 mph42%30.04 "HgN/A
5:20 PM82 °FPassing clouds.13 mph42%30.04 "HgN/A
4:50 PM84 °FPassing clouds.13 mph40%30.04 "HgN/A
4:20 PM84 °FPassing clouds.8 mph37%30.04 "HgN/A
3:50 PM84 °FPassing clouds.8 mph40%30.04 "HgN/A
3:20 PM82 °FSunny.10 mph45%30.04 "Hg10 mi
2:50 PM84 °FPassing clouds.9 mph45%30.04 "HgN/A
2:20 PM82 °FBroken clouds.8 mph48%30.04 "HgN/A
Weather by CustomWeather, © 2014

See weather overviewHow to use our weather pages